Regional Weather Roundup
Issued by NWS Cleveland, OH

Home | Current Version | Previous Version | Text Only | Print | Product List | Glossary Off
Versions: 1 2 3 4 5 6 7 8 9 10 11 12 13 14 15 16 17 18 19 20 21 22 23 24 25 26 27 28 29 30 31 32 33 34 35 36 37 38 39 40 41 42 43 44 45 46 47 48 49 50

899
ASUS41 KCLE 240600
RWRCLE
OHIO REGIONAL WEATHER ROUNDUP
NATIONAL WEATHER SERVICE WILMINGTON, OH
200 AM EDT MON APR 24 2017

NOTE: "FAIR" INDICATES FEW OR NO CLOUDS BELOW 12,000 FEET WITH NO
SIGNIFICANT WEATHER AND/OR OBSTRUCTIONS TO VISIBILITY.

OHZ001>008-015>018-024>027-034-035-043-044-240700-
   NORTHWEST OHIO

CITY           SKY/WX    TMP DP  RH WIND       PRES   REMARKS
DEFIANCE       FAIR      42  36  79 CALM      30.04F
FINDLAY        FAIR      46  30  53 SE3       30.03S
TOLEDO EXPRESS FAIR      43  34  70 CALM      30.04F
TOLEDO EXEC    FAIR      48  36  63 E5        30.05F
LIMA           FAIR      45  32  60 E7        30.02S
$$

OHZ009>014-019>023-028>033-038-089-240700-
   NORTHEAST OHIO

CITY           SKY/WX    TMP DP  RH WIND       PRES   REMARKS
CLE-HOPKINS    FAIR      46  35  65 CALM      30.07F
CLE-LAKEFRONT  FAIR      50  35  56 CALM      30.04F
CUY CO. ARPT   NOT AVBL
LORAIN-ELYRIA  FAIR      41  32  70 E3        30.05F
ASHTABULA      FAIR      38  37  97 CALM      30.07F
AKRON-CANTON   MOCLDY    50  29  44 E6        30.05S
WOOSTER        NOT AVBL
MANSFIELD      FAIR      48  31  51 NE7       30.03F
YOUNGSTOWN     FAIR      48  30  49 NE8       30.06F
$$

OHZ042-051>053-060>062-070>072-077>081-240700-
  SOUTHWEST OHIO

CITY           SKY/WX    TMP DP  RH WIND       PRES   REMARKS
CINC-COVINGTON MOCLDY    55  36  48 N10       29.95S
CINC-LUNKEN    FAIR      46  44  93 CALM      29.97R
HAMILTON       FAIR      52  38  58 NE7       29.98R
DAYTON         NOT AVBL
WRIGHT-PAT AFB FAIR      46  38  74 NE8       29.98F
DAYTON GENERAL FAIR      48  38  68 NE8       29.97F
WILMINGTON     FAIR      50  38  63 NE12      29.96F
$$

OHZ036-037-039>041-045>050-054>059-063>069-073>076-082>088-240700-
  CENTRAL AND SOUTHEAST OHIO

CITY           SKY/WX    TMP DP  RH WIND       PRES   REMARKS
COLUMBUS       FAIR      52  39  61 E7        29.99S
OSU AIRPORT    FAIR      48  39  71 NE5       29.99F
BOLTON FIELD   NOT AVBL
RICKENBACK AFB NOT AVBL
NEWARK         FAIR      50  38  63 CALM      30.00S
MARION         FAIR      45  33  63 NE8       30.02F
LANCASTER      FAIR      49  39  68 NE7       29.99S
ZANESVILLE     FAIR      51  33  50 N6        29.99F
NEW PHILLY     FAIR      49  40  71 CALM      30.03F
$$




USA.gov is the U.S. government's official web portal to all federal, state and local government web resources and services.